#datetime,building,power
2022-05-04T00:00:00,mnr,9.41
2022-05-04T00:01:00,mnr,9.15
2022-05-04T00:02:00,mnr,9.10
2022-05-04T00:03:00,mnr,9.20
2022-05-04T00:04:00,mnr,9.91
2022-05-04T00:05:00,mnr,9.99
2022-05-04T00:06:00,mnr,10.69
2022-05-04T00:07:00,mnr,10.73
2022-05-04T00:08:00,mnr,10.46
2022-05-04T00:09:00,mnr,11.27
2022-05-04T00:10:00,mnr,10.53
2022-05-04T00:11:00,mnr,10.97
2022-05-04T00:12:00,mnr,10.44
2022-05-04T00:13:00,mnr,10.37
2022-05-04T00:14:00,mnr,10.30
2022-05-04T00:15:00,mnr,10.21
2022-05-04T00:16:00,mnr,10.10
2022-05-04T00:17:00,mnr,10.11
2022-05-04T00:18:00,mnr,10.08
2022-05-04T00:19:00,mnr,10.06
2022-05-04T00:20:00,mnr,9.56
2022-05-04T00:21:00,mnr,9.56
2022-05-04T00:22:00,mnr,9.57
2022-05-04T00:23:00,mnr,9.41
2022-05-04T00:24:00,mnr,9.41
2022-05-04T00:25:00,mnr,9.35
2022-05-04T00:26:00,mnr,9.36
2022-05-04T00:27:00,mnr,9.41
2022-05-04T00:28:00,mnr,9.38
2022-05-04T00:29:00,mnr,9.40
2022-05-04T00:30:00,mnr,9.78
2022-05-04T00:31:00,mnr,9.40
2022-05-04T00:32:00,mnr,9.38
2022-05-04T00:33:00,mnr,10.02
2022-05-04T00:34:00,mnr,9.45
2022-05-04T00:35:00,mnr,9.80
2022-05-04T00:36:00,mnr,9.53
2022-05-04T00:37:00,mnr,9.55
2022-05-04T00:38:00,mnr,9.60
2022-05-04T00:39:00,mnr,9.12
2022-05-04T00:40:00,mnr,9.12
2022-05-04T00:41:00,mnr,9.15
2022-05-04T00:42:00,mnr,9.20
2022-05-04T00:43:00,mnr,9.49
2022-05-04T00:44:00,mnr,9.03
2022-05-04T00:45:00,mnr,9.73
2022-05-04T00:46:00,mnr,9.09
2022-05-04T00:47:00,mnr,9.08
2022-05-04T00:48:00,mnr,9.21
2022-05-04T00:49:00,mnr,9.19
2022-05-04T00:50:00,mnr,9.93
2022-05-04T00:51:00,mnr,10.35
2022-05-04T00:52:00,mnr,10.32
2022-05-04T00:53:00,mnr,10.38
2022-05-04T00:54:00,mnr,10.34
2022-05-04T00:55:00,mnr,10.25
2022-05-04T00:56:00,mnr,10.95
2022-05-04T00:57:00,mnr,10.35
2022-05-04T00:58:00,mnr,10.29
2022-05-04T00:59:00,mnr,11.44
2022-05-04T01:00:00,mnr,10.40
2022-05-04T01:01:00,mnr,10.35
2022-05-04T01:02:00,mnr,10.37
2022-05-04T01:03:00,mnr,10.45
2022-05-04T01:04:00,mnr,9.91
2022-05-04T01:05:00,mnr,11.55
2022-05-04T01:06:00,mnr,11.19
2022-05-04T01:07:00,mnr,10.31
2022-05-04T01:08:00,mnr,10.29
2022-05-04T01:09:00,mnr,10.59
2022-05-04T01:10:00,mnr,9.74
2022-05-04T01:11:00,mnr,9.70
2022-05-04T01:12:00,mnr,9.72
2022-05-04T01:13:00,mnr,9.10
2022-05-04T01:14:00,mnr,9.08
2022-05-04T01:15:00,mnr,9.12
2022-05-04T01:16:00,mnr,9.08
2022-05-04T01:17:00,mnr,9.88
2022-05-04T01:18:00,mnr,9.09
2022-05-04T01:19:00,mnr,8.86
2022-05-04T01:20:00,mnr,8.69
2022-05-04T01:21:00,mnr,8.80
2022-05-04T01:22:00,mnr,8.81
2022-05-04T01:23:00,mnr,8.36
2022-05-04T01:24:00,mnr,8.22
2022-05-04T01:25:00,mnr,8.43
2022-05-04T01:26:00,mnr,9.07
2022-05-04T01:27:00,mnr,9.06
2022-05-04T01:28:00,mnr,9.07
2022-05-04T01:29:00,mnr,10.77
2022-05-04T01:30:00,mnr,9.07
2022-05-04T01:31:00,mnr,8.98
2022-05-04T01:32:00,mnr,8.93
2022-05-04T01:33:00,mnr,8.99
2022-05-04T01:34:00,mnr,9.56
2022-05-04T01:35:00,mnr,9.00
2022-05-04T01:36:00,mnr,9.04
2022-05-04T01:37:00,mnr,9.88
2022-05-04T01:38:00,mnr,9.39
2022-05-04T01:39:00,mnr,8.91
2022-05-04T01:40:00,mnr,9.56
2022-05-04T01:41:00,mnr,8.96
2022-05-04T01:42:00,mnr,9.03
2022-05-04T01:43:00,mnr,8.97
2022-05-04T01:44:00,mnr,9.38
2022-05-04T01:45:00,mnr,9.67
2022-05-04T01:46:00,mnr,8.76
2022-05-04T01:47:00,mnr,9.05
2022-05-04T01:48:00,mnr,8.69
2022-05-04T01:49:00,mnr,9.40
2022-05-04T01:50:00,mnr,8.76
2022-05-04T01:51:00,mnr,8.79
2022-05-04T01:52:00,mnr,8.67
2022-05-04T01:53:00,mnr,8.69
2022-05-04T01:54:00,mnr,8.64
2022-05-04T01:55:00,mnr,9.13
2022-05-04T01:56:00,mnr,9.17
2022-05-04T01:57:00,mnr,9.26
2022-05-04T01:58:00,mnr,9.25
2022-05-04T01:59:00,mnr,9.32
2022-05-04T02:00:00,mnr,9.28
2022-05-04T02:01:00,mnr,9.89
2022-05-04T02:02:00,mnr,9.25
2022-05-04T02:03:00,mnr,9.34
2022-05-04T02:04:00,mnr,9.95
2022-05-04T02:05:00,mnr,9.16
2022-05-04T02:06:00,mnr,9.20
2022-05-04T02:07:00,mnr,9.43
2022-05-04T02:08:00,mnr,9.53
2022-05-04T02:09:00,mnr,9.21
2022-05-04T02:10:00,mnr,9.76
2022-05-04T02:11:00,mnr,9.06
2022-05-04T02:12:00,mnr,9.08
2022-05-04T02:13:00,mnr,9.07
2022-05-04T02:14:00,mnr,8.52
2022-05-04T02:15:00,mnr,9.53
2022-05-04T02:16:00,mnr,8.57
2022-05-04T02:17:00,mnr,8.53
2022-05-04T02:18:00,mnr,8.49
2022-05-04T02:19:00,mnr,10.58
2022-05-04T02:20:00,mnr,8.61
2022-05-04T02:21:00,mnr,8.78
2022-05-04T02:22:00,mnr,8.64
2022-05-04T02:23:00,mnr,9.21
2022-05-04T02:24:00,mnr,8.70
2022-05-04T02:25:00,mnr,8.60
2022-05-04T02:26:00,mnr,8.71
2022-05-04T02:27:00,mnr,8.61
2022-05-04T02:28:00,mnr,8.61
2022-05-04T02:29:00,mnr,8.69
2022-05-04T02:30:00,mnr,8.64
2022-05-04T02:31:00,mnr,8.70
2022-05-04T02:32:00,mnr,8.15
2022-05-04T02:33:00,mnr,8.19
2022-05-04T02:34:00,mnr,8.15
2022-05-04T02:35:00,mnr,8.10
2022-05-04T02:36:00,mnr,8.21
2022-05-04T02:37:00,mnr,8.19
2022-05-04T02:38:00,mnr,8.94
2022-05-04T02:39:00,mnr,8.02
2022-05-04T02:40:00,mnr,8.06
2022-05-04T02:41:00,mnr,8.08
2022-05-04T02:42:00,mnr,8.23
2022-05-04T02:43:00,mnr,8.22
2022-05-04T02:44:00,mnr,8.22
2022-05-04T02:45:00,mnr,7.83
2022-05-04T02:46:00,mnr,8.43
2022-05-04T02:47:00,mnr,8.48
2022-05-04T02:48:00,mnr,9.32
2022-05-04T02:49:00,mnr,8.98
2022-05-04T02:50:00,mnr,8.92
2022-05-04T02:51:00,mnr,8.90
2022-05-04T02:52:00,mnr,8.93
2022-05-04T02:53:00,mnr,8.82
2022-05-04T02:54:00,mnr,8.72
2022-05-04T02:55:00,mnr,8.76
2022-05-04T02:56:00,mnr,8.80
2022-05-04T02:57:00,mnr,8.74
2022-05-04T02:58:00,mnr,8.86
2022-05-04T02:59:00,mnr,8.90
2022-05-04T03:00:00,mnr,8.84
2022-05-04T03:01:00,mnr,9.49
2022-05-04T03:02:00,mnr,8.38
2022-05-04T03:03:00,mnr,8.39
2022-05-04T03:04:00,mnr,8.24
2022-05-04T03:05:00,mnr,8.07
2022-05-04T03:06:00,mnr,8.08
2022-05-04T03:07:00,mnr,8.04
2022-05-04T03:08:00,mnr,8.08
2022-05-04T03:09:00,mnr,8.00
2022-05-04T03:10:00,mnr,8.01
2022-05-04T03:11:00,mnr,8.13
2022-05-04T03:12:00,mnr,8.05
2022-05-04T03:13:00,mnr,8.06
2022-05-04T03:14:00,mnr,8.61
2022-05-04T03:15:00,mnr,8.02
2022-05-04T03:16:00,mnr,8.05
2022-05-04T03:17:00,mnr,8.18
2022-05-04T03:18:00,mnr,8.17
2022-05-04T03:19:00,mnr,8.14
2022-05-04T03:20:00,mnr,8.24
2022-05-04T03:21:00,mnr,8.28
2022-05-04T03:22:00,mnr,8.88
2022-05-04T03:23:00,mnr,8.50
2022-05-04T03:24:00,mnr,8.18
2022-05-04T03:25:00,mnr,8.34
2022-05-04T03:26:00,mnr,8.25
2022-05-04T03:27:00,mnr,8.17
2022-05-04T03:28:00,mnr,8.24
2022-05-04T03:29:00,mnr,8.15
2022-05-04T03:30:00,mnr,8.82
2022-05-04T03:31:00,mnr,8.74
2022-05-04T03:32:00,mnr,8.15
2022-05-04T03:33:00,mnr,8.05
2022-05-04T03:34:00,mnr,8.06
2022-05-04T03:35:00,mnr,8.03
2022-05-04T03:36:00,mnr,8.41
2022-05-04T03:37:00,mnr,8.06
2022-05-04T03:38:00,mnr,8.09
2022-05-04T03:39:00,mnr,7.99
2022-05-04T03:40:00,mnr,7.97
2022-05-04T03:41:00,mnr,7.97
2022-05-04T03:42:00,mnr,8.53
2022-05-04T03:43:00,mnr,7.99
2022-05-04T03:44:00,mnr,7.97
2022-05-04T03:45:00,mnr,7.95
2022-05-04T03:46:00,mnr,8.66
2022-05-04T03:47:00,mnr,8.71
2022-05-04T03:48:00,mnr,7.98
2022-05-04T03:49:00,mnr,8.04
2022-05-04T03:50:00,mnr,8.03
2022-05-04T03:51:00,mnr,8.48
2022-05-04T03:52:00,mnr,7.41
2022-05-04T03:53:00,mnr,7.38
2022-05-04T03:54:00,mnr,7.39
2022-05-04T03:55:00,mnr,7.45
2022-05-04T03:56:00,mnr,7.50
2022-05-04T03:57:00,mnr,7.58
2022-05-04T03:58:00,mnr,7.58
2022-05-04T03:59:00,mnr,8.04
2022-05-04T04:00:00,mnr,7.52
2022-05-04T04:01:00,mnr,7.65
2022-05-04T04:02:00,mnr,7.49
2022-05-04T04:03:00,mnr,7.45
2022-05-04T04:04:00,mnr,7.47
2022-05-04T04:05:00,mnr,7.41
2022-05-04T04:06:00,mnr,7.38
2022-05-04T04:07:00,mnr,7.37
2022-05-04T04:08:00,mnr,7.31
2022-05-04T04:09:00,mnr,6.91
2022-05-04T04:10:00,mnr,6.84
2022-05-04T04:11:00,mnr,6.85
2022-05-04T04:12:00,mnr,6.89
2022-05-04T04:13:00,mnr,6.83
2022-05-04T04:14:00,mnr,6.84
2022-05-04T04:15:00,mnr,6.83
2022-05-04T04:16:00,mnr,6.84
2022-05-04T04:17:00,mnr,6.74
2022-05-04T04:18:00,mnr,6.75
2022-05-04T04:19:00,mnr,6.78
2022-05-04T04:20:00,mnr,6.76
2022-05-04T04:21:00,mnr,6.84
2022-05-04T04:22:00,mnr,6.78
2022-05-04T04:23:00,mnr,6.90
2022-05-04T04:24:00,mnr,6.80
2022-05-04T04:25:00,mnr,6.93
2022-05-04T04:26:00,mnr,6.99
2022-05-04T04:27:00,mnr,7.01
2022-05-04T04:28:00,mnr,7.02
2022-05-04T04:29:00,mnr,7.02
2022-05-04T04:30:00,mnr,6.89
2022-05-04T04:31:00,mnr,6.91
2022-05-04T04:32:00,mnr,6.91
2022-05-04T04:33:00,mnr,6.89
2022-05-04T04:34:00,mnr,6.98
2022-05-04T04:35:00,mnr,7.35
2022-05-04T04:36:00,mnr,6.94
2022-05-04T04:37:00,mnr,6.93
2022-05-04T04:38:00,mnr,7.02
2022-05-04T04:39:00,mnr,7.84
2022-05-04T04:40:00,mnr,6.92
2022-05-04T04:41:00,mnr,7.01
2022-05-04T04:42:00,mnr,7.01
2022-05-04T04:43:00,mnr,6.99
2022-05-04T04:44:00,mnr,6.92
2022-05-04T04:45:00,mnr,6.78
2022-05-04T04:46:00,mnr,7.10
2022-05-04T04:47:00,mnr,6.88
2022-05-04T04:48:00,mnr,6.85
2022-05-04T04:49:00,mnr,6.88
2022-05-04T04:50:00,mnr,6.82
2022-05-04T04:51:00,mnr,6.79
2022-05-04T04:52:00,mnr,6.81
2022-05-04T04:53:00,mnr,6.72
2022-05-04T04:54:00,mnr,7.08
2022-05-04T04:55:00,mnr,6.82
2022-05-04T04:56:00,mnr,6.83
2022-05-04T04:57:00,mnr,6.84
2022-05-04T04:58:00,mnr,6.93
2022-05-04T04:59:00,mnr,6.85
2022-05-04T05:00:00,mnr,6.77
2022-05-04T05:01:00,mnr,6.85
2022-05-04T05:02:00,mnr,9.09
2022-05-04T05:03:00,mnr,9.94
2022-05-04T05:04:00,mnr,10.86
2022-05-04T05:05:00,mnr,10.49
2022-05-04T05:06:00,mnr,10.50
2022-05-04T05:07:00,mnr,10.50
2022-05-04T05:08:00,mnr,10.58
2022-05-04T05:09:00,mnr,10.55
2022-05-04T05:10:00,mnr,11.04
2022-05-04T05:11:00,mnr,11.31
2022-05-04T05:12:00,mnr,12.25
2022-05-04T05:13:00,mnr,12.31
2022-05-04T05:14:00,mnr,12.61
2022-05-04T05:15:00,mnr,12.90
2022-05-04T05:16:00,mnr,12.54
2022-05-04T05:17:00,mnr,12.76
2022-05-04T05:18:00,mnr,13.16
2022-05-04T05:19:00,mnr,13.51
2022-05-04T05:20:00,mnr,12.77
2022-05-04T05:21:00,mnr,13.22
2022-05-04T05:22:00,mnr,12.56
2022-05-04T05:23:00,mnr,12.54
2022-05-04T05:24:00,mnr,12.58
2022-05-04T05:25:00,mnr,12.47
2022-05-04T05:26:00,mnr,12.38
2022-05-04T05:27:00,mnr,12.41
2022-05-04T05:28:00,mnr,12.35
2022-05-04T05:29:00,mnr,12.44
2022-05-04T05:30:00,mnr,12.43
2022-05-04T05:31:00,mnr,12.39
2022-05-04T05:32:00,mnr,12.36
2022-05-04T05:33:00,mnr,12.38
2022-05-04T05:34:00,mnr,12.33
2022-05-04T05:35:00,mnr,12.31
2022-05-04T05:36:00,mnr,12.29
2022-05-04T05:37:00,mnr,12.31
2022-05-04T05:38:00,mnr,12.88
2022-05-04T05:39:00,mnr,12.25
2022-05-04T05:40:00,mnr,12.24
2022-05-04T05:41:00,mnr,12.83
2022-05-04T05:42:00,mnr,12.23
2022-05-04T05:43:00,mnr,12.94
2022-05-04T05:44:00,mnr,12.93
2022-05-04T05:45:00,mnr,12.82
2022-05-04T05:46:00,mnr,12.83
2022-05-04T05:47:00,mnr,13.49
2022-05-04T05:48:00,mnr,13.76
2022-05-04T05:49:00,mnr,13.75
2022-05-04T05:50:00,mnr,13.88
2022-05-04T05:51:00,mnr,13.79
2022-05-04T05:52:00,mnr,13.82
2022-05-04T05:53:00,mnr,13.86
2022-05-04T05:54:00,mnr,13.80
2022-05-04T05:55:00,mnr,13.87
2022-05-04T05:56:00,mnr,13.87
2022-05-04T05:57:00,mnr,14.04
2022-05-04T05:58:00,mnr,13.90
2022-05-04T05:59:00,mnr,13.86
2022-05-04T06:00:00,mnr,13.99
2022-05-04T06:01:00,mnr,13.80
2022-05-04T06:02:00,mnr,13.77
2022-05-04T06:03:00,mnr,13.77
2022-05-04T06:04:00,mnr,14.51
2022-05-04T06:05:00,mnr,15.00
2022-05-04T06:06:00,mnr,14.79
2022-05-04T06:07:00,mnr,14.73
2022-05-04T06:08:00,mnr,14.11
2022-05-04T06:09:00,mnr,14.04
2022-05-04T06:10:00,mnr,14.06
2022-05-04T06:11:00,mnr,14.14
2022-05-04T06:12:00,mnr,15.06
2022-05-04T06:13:00,mnr,15.21
2022-05-04T06:14:00,mnr,15.21
2022-05-04T06:15:00,mnr,15.12
2022-05-04T06:16:00,mnr,15.86
2022-05-04T06:17:00,mnr,14.17
2022-05-04T06:18:00,mnr,14.15
2022-05-04T06:19:00,mnr,14.14
2022-05-04T06:20:00,mnr,14.19
2022-05-04T06:21:00,mnr,14.18
2022-05-04T06:22:00,mnr,14.11
2022-05-04T06:23:00,mnr,14.20
2022-05-04T06:24:00,mnr,14.06
2022-05-04T06:25:00,mnr,14.08
2022-05-04T06:26:00,mnr,14.08
2022-05-04T06:27:00,mnr,13.71
2022-05-04T06:28:00,mnr,13.83
2022-05-04T06:29:00,mnr,14.15
2022-05-04T06:30:00,mnr,13.64
2022-05-04T06:31:00,mnr,13.65
2022-05-04T06:32:00,mnr,13.65
2022-05-04T06:33:00,mnr,13.86
2022-05-04T06:34:00,mnr,13.59
2022-05-04T06:35:00,mnr,13.45
2022-05-04T06:36:00,mnr,13.36
2022-05-04T06:37:00,mnr,13.39
2022-05-04T06:38:00,mnr,13.07
2022-05-04T06:39:00,mnr,13.00
2022-05-04T06:40:00,mnr,13.30
2022-05-04T06:41:00,mnr,13.25
2022-05-04T06:42:00,mnr,13.25
2022-05-04T06:43:00,mnr,13.21
2022-05-04T06:44:00,mnr,13.47
2022-05-04T06:45:00,mnr,13.22
2022-05-04T06:46:00,mnr,13.24
2022-05-04T06:47:00,mnr,13.25
2022-05-04T06:48:00,mnr,13.33
2022-05-04T06:49:00,mnr,13.32
2022-05-04T06:50:00,mnr,12.72
2022-05-04T06:51:00,mnr,12.80
2022-05-04T06:52:00,mnr,12.74
2022-05-04T06:53:00,mnr,12.95
2022-05-04T06:54:00,mnr,12.29
2022-05-04T06:55:00,mnr,11.80
2022-05-04T06:56:00,mnr,11.76
2022-05-04T06:57:00,mnr,12.75
2022-05-04T06:58:00,mnr,12.03
2022-05-04T06:59:00,mnr,11.98
2022-05-04T07:00:00,mnr,11.95
2022-05-04T07:01:00,mnr,12.01
2022-05-04T07:02:00,mnr,11.88
2022-05-04T07:03:00,mnr,11.97
2022-05-04T07:04:00,mnr,11.89
2022-05-04T07:05:00,mnr,11.54
2022-05-04T07:06:00,mnr,11.37
2022-05-04T07:07:00,mnr,11.29
2022-05-04T07:08:00,mnr,11.11
2022-05-04T07:09:00,mnr,12.04
2022-05-04T07:10:00,mnr,12.81
2022-05-04T07:11:00,mnr,13.10
2022-05-04T07:12:00,mnr,12.88
2022-05-04T07:13:00,mnr,12.93
2022-05-04T07:14:00,mnr,12.84
2022-05-04T07:15:00,mnr,12.88
2022-05-04T07:16:00,mnr,12.82
2022-05-04T07:17:00,mnr,12.79
2022-05-04T07:18:00,mnr,12.70
2022-05-04T07:19:00,mnr,12.66
2022-05-04T07:20:00,mnr,12.66
2022-05-04T07:21:00,mnr,12.67
2022-05-04T07:22:00,mnr,12.71
2022-05-04T07:23:00,mnr,12.62
2022-05-04T07:24:00,mnr,13.09
2022-05-04T07:25:00,mnr,13.30
2022-05-04T07:26:00,mnr,12.68
2022-05-04T07:27:00,mnr,12.64
2022-05-04T07:28:00,mnr,12.67
2022-05-04T07:29:00,mnr,12.65
2022-05-04T07:30:00,mnr,12.64
2022-05-04T07:31:00,mnr,13.30
2022-05-04T07:32:00,mnr,12.90
2022-05-04T07:33:00,mnr,13.79
2022-05-04T07:34:00,mnr,13.60
2022-05-04T07:35:00,mnr,15.05
2022-05-04T07:36:00,mnr,15.00
2022-05-04T07:37:00,mnr,15.00
2022-05-04T07:38:00,mnr,14.35
2022-05-04T07:39:00,mnr,13.67
2022-05-04T07:40:00,mnr,13.62
2022-05-04T07:41:00,mnr,13.64
2022-05-04T07:42:00,mnr,14.76
2022-05-04T07:43:00,mnr,15.34
2022-05-04T07:44:00,mnr,13.84
2022-05-04T07:45:00,mnr,14.13
2022-05-04T07:46:00,mnr,14.27
2022-05-04T07:47:00,mnr,14.31
2022-05-04T07:48:00,mnr,14.27
2022-05-04T07:49:00,mnr,13.78
2022-05-04T07:50:00,mnr,13.74
2022-05-04T07:51:00,mnr,14.59
2022-05-04T07:52:00,mnr,15.67
2022-05-04T07:53:00,mnr,14.08
2022-05-04T07:54:00,mnr,14.58
2022-05-04T07:55:00,mnr,14.24
2022-05-04T07:56:00,mnr,14.31
2022-05-04T07:57:00,mnr,14.38
2022-05-04T07:58:00,mnr,14.95
2022-05-04T07:59:00,mnr,15.98
2022-05-04T08:00:00,mnr,16.32
2022-05-04T08:01:00,mnr,15.79
2022-05-04T08:02:00,mnr,16.00
2022-05-04T08:03:00,mnr,16.04
2022-05-04T08:04:00,mnr,26.58
2022-05-04T08:05:00,mnr,16.40
2022-05-04T08:06:00,mnr,17.47
2022-05-04T08:07:00,mnr,16.48
2022-05-04T08:08:00,mnr,16.78
2022-05-04T08:09:00,mnr,16.38
2022-05-04T08:10:00,mnr,17.04
2022-05-04T08:11:00,mnr,16.54
2022-05-04T08:12:00,mnr,16.55
2022-05-04T08:13:00,mnr,16.67
2022-05-04T08:14:00,mnr,16.66
2022-05-04T08:15:00,mnr,17.32
2022-05-04T08:16:00,mnr,18.54
2022-05-04T08:17:00,mnr,18.13
2022-05-04T08:18:00,mnr,18.49
2022-05-04T08:19:00,mnr,18.83
2022-05-04T08:20:00,mnr,17.45
2022-05-04T08:21:00,mnr,17.92
2022-05-04T08:22:00,mnr,18.58
2022-05-04T08:23:00,mnr,17.39
2022-05-04T08:24:00,mnr,18.41
2022-05-04T08:25:00,mnr,18.08
2022-05-04T08:26:00,mnr,17.66
2022-05-04T08:27:00,mnr,17.76
2022-05-04T08:28:00,mnr,18.06
2022-05-04T08:29:00,mnr,18.32
2022-05-04T08:30:00,mnr,18.62
2022-05-04T08:31:00,mnr,18.59
2022-05-04T08:32:00,mnr,17.92
2022-05-04T08:33:00,mnr,17.74
2022-05-04T08:34:00,mnr,18.04
2022-05-04T08:35:00,mnr,18.74
2022-05-04T08:36:00,mnr,18.26
2022-05-04T08:37:00,mnr,19.03
2022-05-04T08:38:00,mnr,20.24
2022-05-04T08:39:00,mnr,20.00
2022-05-04T08:40:00,mnr,19.14
2022-05-04T08:41:00,mnr,19.53
2022-05-04T08:42:00,mnr,19.43
2022-05-04T08:43:00,mnr,18.74
2022-05-04T08:44:00,mnr,19.17
2022-05-04T08:45:00,mnr,19.05
2022-05-04T08:46:00,mnr,20.08
2022-05-04T08:47:00,mnr,20.60
2022-05-04T08:48:00,mnr,19.09
2022-05-04T08:49:00,mnr,19.13
2022-05-04T08:50:00,mnr,19.17
2022-05-04T08:51:00,mnr,19.01
2022-05-04T08:52:00,mnr,18.85
2022-05-04T08:53:00,mnr,18.80
2022-05-04T08:54:00,mnr,19.46
2022-05-04T08:55:00,mnr,18.39
2022-05-04T08:56:00,mnr,18.63
2022-05-04T08:57:00,mnr,19.39
2022-05-04T08:58:00,mnr,19.31
2022-05-04T08:59:00,mnr,26.59
2022-05-04T09:00:00,mnr,18.83
2022-05-04T09:01:00,mnr,18.66
2022-05-04T09:02:00,mnr,19.23
2022-05-04T09:03:00,mnr,18.96
2022-05-04T09:04:00,mnr,20.10
2022-05-04T09:05:00,mnr,20.21
2022-05-04T09:06:00,mnr,30.30
2022-05-04T09:07:00,mnr,19.15
2022-05-04T09:08:00,mnr,19.52
2022-05-04T09:09:00,mnr,14.89
2022-05-04T09:10:00,mnr,18.57
2022-05-04T09:11:00,mnr,18.58
2022-05-04T09:12:00,mnr,18.78
2022-05-04T09:13:00,mnr,18.49
2022-05-04T09:14:00,mnr,18.43
2022-05-04T09:15:00,mnr,18.43
2022-05-04T09:16:00,mnr,18.89
2022-05-04T09:17:00,mnr,18.83
2022-05-04T09:18:00,mnr,18.34
2022-05-04T09:19:00,mnr,18.45
2022-05-04T09:20:00,mnr,18.36
2022-05-04T09:21:00,mnr,19.92
2022-05-04T09:22:00,mnr,18.65
2022-05-04T09:23:00,mnr,18.60
2022-05-04T09:24:00,mnr,18.71
2022-05-04T09:25:00,mnr,18.70
2022-05-04T09:26:00,mnr,18.71
2022-05-04T09:27:00,mnr,19.42
2022-05-04T09:28:00,mnr,19.76
2022-05-04T09:29:00,mnr,19.13
2022-05-04T09:30:00,mnr,19.68
2022-05-04T09:31:00,mnr,19.15
2022-05-04T09:32:00,mnr,19.12
2022-05-04T09:33:00,mnr,19.04
2022-05-04T09:34:00,mnr,18.83
2022-05-04T09:35:00,mnr,18.77
2022-05-04T09:36:00,mnr,19.65
2022-05-04T09:37:00,mnr,18.87
2022-05-04T09:38:00,mnr,18.90
2022-05-04T09:39:00,mnr,19.01
2022-05-04T09:40:00,mnr,19.74
2022-05-04T09:41:00,mnr,19.78
2022-05-04T09:42:00,mnr,19.68
2022-05-04T09:43:00,mnr,19.64
2022-05-04T09:44:00,mnr,21.11
2022-05-04T09:45:00,mnr,23.20
2022-05-04T09:46:00,mnr,22.80
2022-05-04T09:47:00,mnr,21.09
2022-05-04T09:48:00,mnr,21.52
2022-05-04T09:49:00,mnr,21.18
2022-05-04T09:50:00,mnr,21.34
2022-05-04T09:51:00,mnr,21.34
2022-05-04T09:52:00,mnr,21.23
2022-05-04T09:53:00,mnr,21.21
2022-05-04T09:54:00,mnr,21.09
2022-05-04T09:55:00,mnr,21.94
2022-05-04T09:56:00,mnr,22.70
2022-05-04T09:57:00,mnr,22.15
2022-05-04T09:58:00,mnr,20.50
2022-05-04T09:59:00,mnr,20.35
2022-05-04T10:00:00,mnr,20.53
2022-05-04T10:01:00,mnr,20.98
2022-05-04T10:02:00,mnr,20.21
2022-05-04T10:03:00,mnr,20.73
2022-05-04T10:04:00,mnr,20.37
2022-05-04T10:05:00,mnr,20.74
2022-05-04T10:06:00,mnr,20.33
2022-05-04T10:07:00,mnr,20.27
2022-05-04T10:08:00,mnr,20.27
2022-05-04T10:09:00,mnr,20.33
2022-05-04T10:10:00,mnr,20.77
2022-05-04T10:11:00,mnr,21.28
2022-05-04T10:12:00,mnr,20.52
2022-05-04T10:13:00,mnr,20.07
2022-05-04T10:14:00,mnr,20.12
2022-05-04T10:15:00,mnr,20.14
2022-05-04T10:16:00,mnr,20.13
2022-05-04T10:17:00,mnr,20.78
2022-05-04T10:18:00,mnr,20.04
2022-05-04T10:19:00,mnr,21.48
2022-05-04T10:20:00,mnr,21.64
2022-05-04T10:21:00,mnr,21.39
2022-05-04T10:22:00,mnr,21.46
2022-05-04T10:23:00,mnr,19.94
2022-05-04T10:24:00,mnr,19.23
2022-05-04T10:25:00,mnr,18.59
2022-05-04T10:26:00,mnr,18.97
2022-05-04T10:27:00,mnr,18.63
2022-05-04T10:28:00,mnr,18.71
2022-05-04T10:29:00,mnr,18.37
2022-05-04T10:30:00,mnr,18.52
2022-05-04T10:31:00,mnr,18.73
2022-05-04T10:32:00,mnr,20.08
2022-05-04T10:33:00,mnr,20.08
2022-05-04T10:34:00,mnr,18.60
2022-05-04T10:35:00,mnr,18.61
2022-05-04T10:36:00,mnr,18.61
2022-05-04T10:37:00,mnr,18.63
2022-05-04T10:38:00,mnr,19.49
2022-05-04T10:39:00,mnr,19.72
2022-05-04T10:40:00,mnr,20.04
2022-05-04T10:41:00,mnr,18.72
2022-05-04T10:42:00,mnr,19.06
2022-05-04T10:43:00,mnr,18.73
2022-05-04T10:44:00,mnr,19.17
2022-05-04T10:45:00,mnr,19.54
2022-05-04T10:46:00,mnr,18.79
2022-05-04T10:47:00,mnr,18.89
2022-05-04T10:48:00,mnr,18.75
2022-05-04T10:49:00,mnr,18.74
2022-05-04T10:50:00,mnr,19.07
2022-05-04T10:51:00,mnr,18.81
2022-05-04T10:52:00,mnr,19.02
2022-05-04T10:53:00,mnr,18.87
2022-05-04T10:54:00,mnr,18.75
2022-05-04T10:55:00,mnr,18.83
2022-05-04T10:56:00,mnr,19.24
2022-05-04T10:57:00,mnr,19.16
2022-05-04T10:58:00,mnr,19.02
2022-05-04T10:59:00,mnr,19.56
2022-05-04T11:00:00,mnr,19.35
2022-05-04T11:01:00,mnr,19.79
2022-05-04T11:02:00,mnr,18.67
2022-05-04T11:03:00,mnr,18.59
2022-05-04T11:04:00,mnr,18.64
2022-05-04T11:05:00,mnr,18.58
2022-05-04T11:06:00,mnr,29.85
2022-05-04T11:07:00,mnr,18.32
2022-05-04T11:08:00,mnr,18.80
2022-05-04T11:09:00,mnr,18.14
2022-05-04T11:10:00,mnr,18.35
2022-05-04T11:11:00,mnr,18.96
2022-05-04T11:12:00,mnr,31.59
2022-05-04T11:13:00,mnr,20.64
2022-05-04T11:14:00,mnr,20.07
2022-05-04T11:15:00,mnr,20.11
2022-05-04T11:16:00,mnr,19.62
2022-05-04T11:17:00,mnr,20.21
2022-05-04T11:18:00,mnr,18.32
2022-05-04T11:19:00,mnr,18.60
2022-05-04T11:20:00,mnr,18.40
2022-05-04T11:21:00,mnr,29.90
2022-05-04T11:22:00,mnr,18.46
2022-05-04T11:23:00,mnr,18.50
2022-05-04T11:24:00,mnr,19.28
2022-05-04T11:25:00,mnr,18.79
2022-05-04T11:26:00,mnr,20.10
2022-05-04T11:27:00,mnr,20.15
2022-05-04T11:28:00,mnr,20.17
2022-05-04T11:29:00,mnr,20.89
2022-05-04T11:30:00,mnr,18.70
2022-05-04T11:31:00,mnr,18.66
2022-05-04T11:32:00,mnr,18.62
2022-05-04T11:33:00,mnr,18.72
2022-05-04T11:34:00,mnr,19.17
2022-05-04T11:35:00,mnr,19.70
2022-05-04T11:36:00,mnr,19.14
2022-05-04T11:37:00,mnr,20.10
2022-05-04T11:38:00,mnr,19.22
2022-05-04T11:39:00,mnr,19.11
2022-05-04T11:40:00,mnr,19.20
2022-05-04T11:41:00,mnr,19.65
2022-05-04T11:42:00,mnr,19.20
2022-05-04T11:43:00,mnr,19.08
2022-05-04T11:44:00,mnr,20.41
2022-05-04T11:45:00,mnr,20.36
2022-05-04T11:46:00,mnr,20.95
2022-05-04T11:47:00,mnr,18.84
2022-05-04T11:48:00,mnr,18.88
2022-05-04T11:49:00,mnr,18.93
2022-05-04T11:50:00,mnr,18.92
2022-05-04T11:51:00,mnr,18.96
2022-05-04T11:52:00,mnr,18.82
2022-05-04T11:53:00,mnr,18.95
2022-05-04T11:54:00,mnr,18.74
2022-05-04T11:55:00,mnr,19.46
2022-05-04T11:56:00,mnr,18.84
2022-05-04T11:57:00,mnr,20.76
2022-05-04T11:58:00,mnr,20.08
2022-05-04T11:59:00,mnr,18.76
2022-05-04T12:00:00,mnr,18.74
2022-05-04T12:01:00,mnr,19.31
2022-05-04T12:02:00,mnr,18.78
2022-05-04T12:03:00,mnr,20.26
2022-05-04T12:04:00,mnr,19.20
2022-05-04T12:05:00,mnr,18.86
2022-05-04T12:06:00,mnr,19.61
2022-05-04T12:07:00,mnr,19.51
2022-05-04T12:08:00,mnr,19.07
2022-05-04T12:09:00,mnr,15.92
2022-05-04T12:10:00,mnr,21.40
2022-05-04T12:11:00,mnr,19.44
2022-05-04T12:12:00,mnr,19.86
2022-05-04T12:13:00,mnr,18.90
2022-05-04T12:14:00,mnr,19.07
2022-05-04T12:15:00,mnr,18.97
2022-05-04T12:16:00,mnr,19.45
2022-05-04T12:17:00,mnr,18.99
2022-05-04T12:18:00,mnr,19.45
2022-05-04T12:19:00,mnr,19.72
2022-05-04T12:20:00,mnr,20.08
2022-05-04T12:21:00,mnr,19.48
2022-05-04T12:22:00,mnr,19.81
2022-05-04T12:23:00,mnr,19.47
2022-05-04T12:24:00,mnr,19.38
2022-05-04T12:25:00,mnr,19.41
2022-05-04T12:26:00,mnr,19.51
2022-05-04T12:27:00,mnr,18.89
2022-05-04T12:28:00,mnr,18.51
2022-05-04T12:29:00,mnr,18.13
2022-05-04T12:30:00,mnr,19.63
2022-05-04T12:31:00,mnr,17.99
2022-05-04T12:32:00,mnr,17.92
2022-05-04T12:33:00,mnr,18.08
2022-05-04T12:34:00,mnr,17.98
2022-05-04T12:35:00,mnr,18.58
2022-05-04T12:36:00,mnr,18.21
2022-05-04T12:37:00,mnr,19.41
2022-05-04T12:38:00,mnr,18.18
2022-05-04T12:39:00,mnr,18.61
2022-05-04T12:40:00,mnr,18.62
2022-05-04T12:41:00,mnr,17.91
2022-05-04T12:42:00,mnr,18.06
2022-05-04T12:43:00,mnr,18.22
2022-05-04T12:44:00,mnr,18.18
2022-05-04T12:45:00,mnr,18.27
2022-05-04T12:46:00,mnr,18.23
2022-05-04T12:47:00,mnr,18.39
2022-05-04T12:48:00,mnr,18.64
2022-05-04T12:49:00,mnr,18.25
2022-05-04T12:50:00,mnr,18.10
2022-05-04T12:51:00,mnr,18.65
2022-05-04T12:52:00,mnr,18.10
2022-05-04T12:53:00,mnr,18.07
2022-05-04T12:54:00,mnr,18.20
2022-05-04T12:55:00,mnr,17.96
2022-05-04T12:56:00,mnr,17.86
2022-05-04T12:57:00,mnr,18.39
2022-05-04T12:58:00,mnr,18.39
2022-05-04T12:59:00,mnr,19.15
2022-05-04T13:00:00,mnr,18.33
2022-05-04T13:01:00,mnr,18.57
2022-05-04T13:02:00,mnr,20.01
2022-05-04T13:03:00,mnr,18.39
2022-05-04T13:04:00,mnr,18.60
2022-05-04T13:05:00,mnr,18.27
2022-05-04T13:06:00,mnr,18.27
2022-05-04T13:07:00,mnr,18.81
2022-05-04T13:08:00,mnr,18.58
2022-05-04T13:09:00,mnr,19.37
2022-05-04T13:10:00,mnr,18.69
2022-05-04T13:11:00,mnr,19.33
2022-05-04T13:12:00,mnr,18.61
2022-05-04T13:13:00,mnr,18.55
2022-05-04T13:14:00,mnr,18.99
2022-05-04T13:15:00,mnr,19.21
2022-05-04T13:16:00,mnr,18.69
2022-05-04T13:17:00,mnr,18.59
2022-05-04T13:18:00,mnr,19.12
2022-05-04T13:19:00,mnr,19.10
2022-05-04T13:20:00,mnr,19.11
2022-05-04T13:21:00,mnr,19.86
2022-05-04T13:22:00,mnr,26.00
2022-05-04T13:23:00,mnr,19.28
2022-05-04T13:24:00,mnr,20.12
2022-05-04T13:25:00,mnr,19.25
2022-05-04T13:26:00,mnr,19.32
2022-05-04T13:27:00,mnr,20.99